This is the latest recevied weather packets stored in our database for station/object VE3TEJ. If no packets are shown the sender has not sent any weather packets the latest 10 day(s).
| Time | Temp. | Humidity | Pressure | Rain* | Wind** | Luminosity | Snow |
|---|---|---|---|---|---|---|---|
| 1777569438 | 9.44° C | 62% | 1011.5 hPa | 0 mm | - | - | - |
| 1777569138 | 10.56° C | 58% | 1011.6 hPa | 0 mm | - | - | - |
| 1777568837 | 10° C | 62% | 1011.4 hPa | 0 mm | - | - | - |
| 1777568537 | 9.44° C | 60% | 1011.6 hPa | 0 mm | - | - | - |
| 1777568237 | 9.44° C | 62% | 1011.7 hPa | 0 mm | - | - | - |
| 1777567936 | 9.44° C | 65% | 1011.5 hPa | 0 mm | - | - | - |
| 1777567637 | 9.44° C | 63% | 1011.6 hPa | 0 mm | - | - | - |
| 1777567337 | 8.89° C | 64% | 1011.8 hPa | 0 mm | - | - | - |
| 1777567037 | 8.89° C | 64% | 1011.5 hPa | 0 mm | - | - | - |
| 1777566736 | 9.44° C | 64% | 1011.6 hPa | 0 mm | - | - | - |
| 1777566438 | 9.44° C | 65% | 1011.6 hPa | 0 mm | - | - | - |
| 1777566137 | 8.89° C | 65% | 1011.5 hPa | 0 mm | - | - | - |
| 1777565837 | 8.89° C | 64% | 1011.7 hPa | 0 mm | - | - | - |
| 1777565537 | 9.44° C | 65% | 1011.5 hPa | 0 mm | - | - | - |
| 1777565237 | 9.44° C | 64% | 1011.4 hPa | 0 mm | - | - | - |
| 1777564936 | 10.56° C | 63% | 1011.8 hPa | 0 mm | - | - | - |
| 1777564637 | 10.56° C | 64% | 1011.6 hPa | 0 mm | - | - | - |
| 1777564337 | 10° C | 65% | 1011.5 hPa | 0 mm | - | - | - |
| 1777564036 | 9.44° C | 65% | 1011.7 hPa | 0 mm | - | - | - |
| 1777563736 | 8.89° C | 66% | 1011.6 hPa | 0 mm | - | - | - |
| 1777563437 | 8.89° C | 68% | 1011.6 hPa | 0 mm | - | - | - |
| 1777563137 | 8.89° C | 66% | 1011.7 hPa | 0 mm | - | - | - |
| 1777562837 | 8.89° C | 66% | 1011.6 hPa | 0 mm | - | - | - |
| 1777562536 | 8.33° C | 69% | 1011.5 hPa | 0 mm | - | - | - |
| 1777562237 | 8.33° C | 66% | 1011.4 hPa | 0 mm | - | - | - |
* Rain latest hour (hover to see other rain measurements)
** Current wind speed in m/s (hover to see current wind gust speed)